Terug naar catalogus

STARLINK-34164

ActiefCommunicatieVLEO
NORAD 64177·PAYLOAD·🇺🇸 United States

Gelanceerd May 28, 2025 vanaf Cape Canaveral Space Force Station

Loading…

Volgende Passages (komende 24 uur)

TLE

VersSource: CelesTrak SupGP

Epoch: Sep 15, 2026, 03:39 UTC

1 64177C 25113H   26258.15256944  .00001903  00000+0  56192-4 0  2583
2 64177  53.1577 290.5905 0001203  99.9189 125.7984 15.34402547    18

Volg STARLINK-34164 in realtime met AllMySat

Download on the App Store